Dyersburg, TN

1:13 PM CST on February 26, 2017 (GMT -0600)
Dyersburg Municipal

Weather History for KDYR - August, 2013

Change the Weather History Date:

Wednesday, August 14, 2013

  Actual Average Record
Temperature  
Mean Temperature 84 °F -  
Max Temperature 107 °F 85 °F 107 °F (2013)
Min Temperature 62 °F 66 °F 50 °F (2004)
Cooling Degree Days 20    
Growing Degree Days 34 (Base 50)    
Moisture  
Dew Point 50 °F    
Average Humidity 50    
Maximum Humidity 68    
Minimum Humidity 19    
Precipitation  
Precipitation 0.00 in - - ()
Sea Level Pressure  
Sea Level Pressure 30.09 in    
Wind  
Wind Speed 11 mph (NE)    
Max Wind Speed 17 mph    
Max Gust Speed 23 mph    
Visibility 10 miles    
Events      
Averages and records for this station are not official NWS values.
T = Trace of Precipitation, MM = Missing Value Source: NWS Daily Summary

Daily Weather History Graph

Daily Weather History Graph

Search for Another Location

Airport or City:

Trip Planner

Search our weather history database for the weather conditions in past years. The results will help you decide how hot, cold, wet, or windy it might be!

Date:

Astronomy

Aug. 14, 2013 Rise Set
Actual Time 6:15 AM CDT 7:48 PM CDT
Civil Twilight 5:48 AM CDT 8:15 PM CDT
Nautical Twilight 5:15 AM CDT 8:48 PM CDT
Astronomical Twilight 4:40 AM CDT 9:22 PM CDT
Moon 1:58 PM CDT (8/14) No Moon Set
Length of Visible Light 14h 27m
Length of Day
13h 32m
First Quarter, 53% of the Moon is Illuminated
Aug 14
First Quarter
Aug 20
Full
Aug 28
Last Quarter
Sep 5
New
Sep 12
First Quarter

Hourly Weather History & Observations

Time (CDT) Temp. Heat Index Dew Point Humidity Pressure Visibility Wind Dir Wind Speed Gust Speed Precip Events Conditions
12:15 AM 71.6 °F - 57.2 °F 60% 30.03 in 10.0 mi NE 11.5 mph - N/A   Clear
12:35 AM 71.6 °F - 57.2 °F 60% 30.04 in 10.0 mi NE 9.2 mph - N/A   Clear
12:55 AM 69.8 °F - 55.4 °F 60% 30.04 in 10.0 mi NE 9.2 mph - N/A   Clear
1:15 AM 69.8 °F - 55.4 °F 60% 30.04 in 10.0 mi NNE 10.4 mph 17.3 mph N/A   Clear
1:35 AM 69.8 °F - 55.4 °F 60% 30.04 in 10.0 mi NNE 13.8 mph - N/A   Clear
1:55 AM 69.8 °F - 55.4 °F 60% 30.04 in 10.0 mi NE 10.4 mph 17.3 mph N/A   Clear
2:15 AM 68.0 °F - 53.6 °F 60% 30.03 in 10.0 mi NE 10.4 mph 17.3 mph N/A   Clear
2:35 AM 68.0 °F - 53.6 °F 60% 30.03 in 10.0 mi NE 12.7 mph - N/A   Clear
3:15 AM 66.2 °F - 53.6 °F 64% 30.04 in 10.0 mi NE 11.5 mph - N/A   Clear
3:35 AM 66.2 °F - 53.6 °F 64% 30.05 in 10.0 mi NE 11.5 mph - N/A   Clear
3:55 AM 66.2 °F - 53.6 °F 64% 30.05 in 10.0 mi NE 11.5 mph - N/A   Clear
4:15 AM 66.2 °F - 53.6 °F 64% 30.06 in 10.0 mi NE 12.7 mph 17.3 mph N/A   Clear
4:35 AM 64.4 °F - 53.6 °F 68% 30.06 in 10.0 mi NE 10.4 mph - N/A   Clear
5:35 AM 64.4 °F - 51.8 °F 64% 30.08 in 10.0 mi NE 8.1 mph - N/A   Clear
5:55 AM 64.4 °F - 50.0 °F 59% 30.08 in 10.0 mi NE 6.9 mph - N/A   Clear
6:15 AM 62.6 °F - 50.0 °F 63% 30.10 in 10.0 mi ENE 4.6 mph - N/A   Clear
6:35 AM 62.6 °F - 48.2 °F 59% 30.10 in 10.0 mi NE 8.1 mph - N/A   Clear
6:55 AM 62.6 °F - 48.2 °F 59% 30.10 in 10.0 mi NE 8.1 mph - N/A   Clear
7:15 AM 62.6 °F - 48.2 °F 59% 30.11 in 10.0 mi NE 10.4 mph - N/A   Clear
7:35 AM 62.6 °F - 48.2 °F 59% 30.11 in 10.0 mi NE 10.4 mph - N/A   Clear
7:55 AM 64.4 °F - 48.2 °F 56% 30.11 in 10.0 mi NE 9.2 mph - N/A   Clear
8:15 AM 64.4 °F - 48.2 °F 56% 30.11 in 10.0 mi NNE 10.4 mph - N/A   Clear
8:35 AM 64.4 °F - 48.2 °F 56% 30.11 in 10.0 mi NNE 10.4 mph 17.3 mph N/A   Clear
8:55 AM 66.2 °F - 48.2 °F 52% 30.12 in 10.0 mi NNE 13.8 mph - N/A   Clear
9:15 AM 66.2 °F - 48.2 °F 52% 30.12 in 10.0 mi NE 10.4 mph 17.3 mph N/A   Clear
9:55 AM 66.2 °F - 48.2 °F 52% 30.13 in 10.0 mi NE 10.4 mph - N/A   Clear
10:15 AM 68.0 °F - 48.2 °F 49% 30.13 in 10.0 mi NE 12.7 mph - N/A   Clear
10:35 AM 69.8 °F - 48.2 °F 46% 30.13 in 10.0 mi NNE 11.5 mph 16.1 mph N/A   Clear
11:15 AM 71.6 °F - 48.2 °F 43% 30.13 in 10.0 mi NE 16.1 mph 19.6 mph N/A   Clear
11:35 AM 71.6 °F - 50.0 °F 46% 30.13 in 10.0 mi NNE 16.1 mph - N/A   Clear
11:55 AM 71.6 °F - 48.2 °F 43% 30.13 in 10.0 mi ENE 11.5 mph 19.6 mph N/A   Clear
12:15 PM 71.6 °F - 48.2 °F 43% 30.12 in 10.0 mi NE 12.7 mph - N/A   Clear
12:36 PM 73.4 °F - 48.2 °F 41% 30.12 in 10.0 mi NE 11.5 mph 21.9 mph N/A   Clear
12:55 PM 73.4 °F - 48.2 °F 41% 30.12 in 10.0 mi NNE 16.1 mph 19.6 mph N/A   Clear
1:15 PM 73.4 °F - 48.2 °F 41% 30.12 in 10.0 mi NNE 11.5 mph - N/A   Clear
1:35 PM 73.4 °F - 50.0 °F 44% 30.11 in 10.0 mi ENE 8.1 mph 18.4 mph N/A   Clear
1:55 PM 75.2 °F - 50.0 °F 41% 30.11 in 10.0 mi North 13.8 mph 23.0 mph N/A   Clear
2:55 PM 75.2 °F - 48.2 °F 38% 30.10 in 10.0 mi NNE 12.7 mph 21.9 mph N/A   Clear
3:15 PM 75.2 °F - 48.2 °F 38% 30.09 in 10.0 mi NNE 15.0 mph - N/A   Clear
3:35 PM 75.2 °F - 48.2 °F 38% 30.09 in 10.0 mi ENE 10.4 mph 21.9 mph N/A   Clear
3:55 PM 75.2 °F - 48.2 °F 38% 30.08 in 10.0 mi NNE 16.1 mph 20.7 mph N/A   Clear
4:15 PM 75.2 °F - 50.0 °F 41% 30.08 in 10.0 mi NE 16.1 mph 19.6 mph N/A   Clear
4:35 PM 75.2 °F - 50.0 °F 41% 30.08 in 10.0 mi NNE 11.5 mph 16.1 mph N/A   Clear
5:15 PM 75.2 °F - 50.0 °F 41% 30.08 in 10.0 mi NE 15.0 mph - N/A   Clear
5:35 PM 75.2 °F - 48.2 °F 38% 30.08 in 10.0 mi NE 15.0 mph - N/A   Clear
5:55 PM 75.2 °F - 48.2 °F 38% 30.08 in 10.0 mi NNE 12.7 mph - N/A   Clear
6:15 PM 73.4 °F - 48.2 °F 41% 30.07 in 10.0 mi NNE 17.3 mph - N/A   Clear
6:35 PM 73.4 °F - 48.2 °F 41% 30.07 in 10.0 mi NNE 13.8 mph 18.4 mph N/A   Clear
6:55 PM 73.4 °F - 48.2 °F 41% 30.07 in 10.0 mi NNE 13.8 mph 19.6 mph N/A   Clear
7:15 PM 71.6 °F - 48.2 °F 43% 30.08 in 10.0 mi NE 9.2 mph - N/A   Clear
7:35 PM 69.8 °F - 48.2 °F 46% 30.08 in 10.0 mi NE 9.2 mph 16.1 mph N/A   Clear
7:47 PM 107.6 °F 107.5 °F 57.2 °F 19% 29.76 in 10.0 mi SW 10.4 mph - N/A   Mostly Cloudy
7:55 PM 69.8 °F - 46.4 °F 43% 30.08 in 10.0 mi NNE 8.1 mph - N/A   Clear
8:16 PM 68.0 °F - 46.4 °F 46% 30.09 in 10.0 mi NNE 6.9 mph - N/A   Clear
8:35 PM 66.2 °F - 46.4 °F 49% 30.10 in 10.0 mi NNE 4.6 mph - N/A   Clear
8:55 PM 66.2 °F - 46.4 °F 49% 30.10 in 10.0 mi NNE 6.9 mph - N/A   Clear
9:15 PM 64.4 °F - 46.4 °F 52% 30.11 in 10.0 mi NNE 9.2 mph - N/A   Clear
9:35 PM 64.4 °F - 46.4 °F 52% 30.11 in 10.0 mi NNE 9.2 mph - N/A   Clear
9:55 PM 64.4 °F - 46.4 °F 52% 30.11 in 10.0 mi NE 9.2 mph - N/A   Clear
10:15 PM 64.4 °F - 46.4 °F 52% 30.12 in 10.0 mi NE 9.2 mph - N/A   Clear
10:35 PM 64.4 °F - 46.4 °F 52% 30.12 in 10.0 mi NNE 8.1 mph - N/A   Clear
10:36 PM 64.4 °F - 46.4 °F 52% 30.12 in 10.0 mi NNE 8.1 mph - N/A   Clear
10:55 PM 62.6 °F - 46.4 °F 55% 30.12 in 10.0 mi NNE 9.2 mph - N/A   Clear
11:15 PM 62.6 °F - 46.4 °F 55% 30.12 in 10.0 mi NNE 8.1 mph - N/A   Clear
11:35 PM 62.6 °F - 46.4 °F 55% 30.12 in 10.0 mi NNE 8.1 mph - N/A   Clear
11:55 PM 62.6 °F - 46.4 °F 55% 30.12 in 10.0 mi NE 4.6 mph - N/A   Clear